星链-35939(STARLINK-35939)

导读

STARLINK-35939是美国于2025年11月21日发射的星链卫星,星链项目由SpaceX打造,旨在构建全球卫星互联网星座,为全球多地提供高速低延迟宽带服务,尤其覆盖偏远等网络基础设施薄弱区域,这颗卫星加入后进一步扩充了星链星座的在轨卫星规模。

基本信息
目录编号:
66584
目录名称:
STARLINK-35939
国际标识:
2025-268AD
轨道中心:
EARTH
卫星名称:
星链-35939
卫星全名:
星链-35939(STARLINK-35939)
卫星状态:
在轨 (已飞行287 天)
发射日期:
2025-11-21 UTC
国别 :
美国 (US)
星等 :
--
轨道信息
数据来源 国际轨道数据 AOE轨道数据
星历时间 2026-09-04T04:45:21+0800
23小时前
查看轨道信息
2026-09-03T11:00:00+0800
1天前
查看轨道信息
半长轴 6861.16km 6861.195km
偏心率 0.0001579 0.0000777
轨道倾角 43.004° 43.002°
近地点辐角 267.846° 249.365°
升交点赤经 60.444° 64.624°
平近点角 92.221° 357.375°
近地点 481.939km 482.524km
远地点 484.107km 483.592km
周期 94.266分钟 94.267分钟
每日圈数 15.275889 15.275772
详细信息
固有亮度:
5
最大亮度:
2.5
卫星平台:
Starlink V1.0
覆盖范围:
全球
运营商:
太空探索技术公司
运营商所在国:
美国
制造商(研发单位):
太空探索技术公司
制造商所在国:
美国
使用方式:
暂无
卫星简介
Starlink 计划是 SpaceX 推出的全球卫星互联网项目,通过发射低轨道卫星,为全球尤其是偏远地区提供高速、低延迟的互联网服务。自 2019 年起,Starlink 已部署数千颗卫星,旨在缩小全球数字鸿沟,推动互联网普及。该项目还为军事、航空等行业提供通信支持,带来广泛经济效益。
2D轨道图
3D轨道图
轨道高度分析图
轨道倾角分析图
轨道综合分析图
查看轨道综合分析图
交会数据列表
事件ID 空间交会对象 最接近时刻(TCA) 交会距离 交会风险概率(CRP) 交会风险指数(CRI) 操作
CDM_260905-231306-220106-658421
2026-09-05T
23:13:58+0000
0.571 km
远距离
8.837688E-5 中风险 0.74
CDM_260905-161006-220106-658421
2026-09-05T
16:10:16+0000
1.003 km
极远距离
1.493688E-5 中风险 0.58
CDM_260905-121903-718106-658422
2026-09-05T
12:19:11+0000
2.185 km
极远距离
2.102552E-6 低风险 0.41
CDM_260905-174406-220106-658421
2026-09-05T
17:44:26+0000
2.147 km
极远距离
1.446844E-6 低风险 0.38
CDM_260906-231706-658406-863321
MISR-C-2 (68633)
2026-09-06T
23:17:33+0000
2.822 km
极远距离
1.280153E-6 低风险 0.37
CDM_260907-014505-307806-658421
2026-09-07T
01:45:52+0000
2.407 km
极远距离
1.247908E-6 低风险 0.37